Vilalleons





Hora UTC 22:40
Temperatura 7.4 ºC
Humitat 96.0 %
Pressió 1027.4 hPa
Pluja 0.0 mm
Velocitat vent 3.2 km/h
Direcció vent ESE

Dades diàries 2020-10-29



Hora UTC (hivern +1h; estiu +2h)
Temperatura (ºC) Humitat (%) Pressió (hPa) Velocitat vent (km/h) Precipitació (mm)
Hora UTC Aire Humitat Pressió Vel. Dir. Vel. Max Dir. Intent. màx 5 min.
00:00 6.2 96.0 1025.4 0.0 SE 0.0 0.0
00:05 6.2 96.0 1025.4 1.6 SE 3.2 0.0
00:10 6.1 96.0 1025.4 3.2 SE 3.2 0.0
00:15 6.1 96.0 1025.3 1.6 SE 3.2 0.0
00:20 6.1 96.0 1025.2 1.6 SE 3.2 0.0
00:25 6.0 95.0 1025.3 1.6 SE 3.2 0.0
00:30 5.9 96.0 1025.2 1.6 SE 3.2 0.0
00:35 6.0 96.0 1025.2 0.0 SE 3.2 0.0
00:40 6.0 96.0 1025.3 1.6 SE 3.2 0.0
00:45 5.9 96.0 1025.3 1.6 SE 3.2 0.0
00:50 5.9 96.0 1025.5 0.0 SE 3.2 0.0
00:55 5.9 96.0 1025.5 1.6 SE 3.2 0.0
01:00 5.8 96.0 1025.4 1.6 SE 4.8 0.0
01:05 5.8 96.0 1025.4 3.2 SE 4.8 0.0
01:10 5.8 96.0 1025.4 1.6 SE 3.2 0.0
01:15 5.7 96.0 1025.5 1.6 SE 3.2 0.0
01:20 5.7 96.0 1025.6 3.2 SE 3.2 0.0
01:25 5.7 96.0 1025.5 3.2 SE 3.2 0.0
01:30 5.7 96.0 1025.5 1.6 SE 3.2 0.0
01:35 5.8 96.0 1025.5 3.2 SE 3.2 0.0
01:40 5.8 96.0 1025.5 3.2 SE 3.2 0.0
01:45 5.8 96.0 1025.3 1.6 SE 3.2 0.0
01:50 5.9 96.0 1025.3 1.6 SE 3.2 0.0
02:00 5.8 96.0 1025.2 3.2 SE 4.8 0.0
02:05 5.8 96.0 1025.1 1.6 SE 4.8 0.0
02:10 5.9 96.0 1025.2 0.0 SE 3.2 0.0
02:15 6.0 96.0 1025.2 1.6 SE 3.2 0.0
02:20 5.9 96.0 1025.0 3.2 SE 4.8 0.0
02:25 5.9 96.0 1024.8 3.2 SE 4.8 0.0
02:30 5.8 96.0 1024.7 0.0 SE 4.8 0.0
02:35 5.7 96.0 1024.8 1.6 SE 3.2 0.0
02:40 5.8 96.0 1024.7 1.6 SE 1.6 0.0
02:45 5.7 96.0 1025.0 1.6 SE 1.6 0.0
02:50 5.7 96.0 1025.1 1.6 SE 3.2 0.0
02:55 5.7 96.0 1025.1 1.6 SE 3.2 0.0
03:00 5.7 96.0 1025.3 3.2 SE 3.2 0.0
03:05 5.7 96.0 1025.2 3.2 SE 4.8 0.0
03:10 5.7 96.0 1025.2 1.6 SE 4.8 0.0
03:15 5.7 96.0 1024.9 0.0 SE 4.8 0.0
03:20 5.7 96.0 1024.9 1.6 SE 4.8 0.0
03:25 5.8 97.0 1025.1 1.6 SE 3.2 0.0
03:30 5.8 96.0 1025.1 1.6 SE 3.2 0.0
03:35 5.8 96.0 1025.0 3.2 SE 3.2 0.0
03:40 5.6 96.0 1024.9 0.0 SE 3.2 0.0
03:45 5.6 96.0 1025.0 0.0 SE 4.8 0.0
03:50 5.6 96.0 1025.0 0.0 SE 4.8 0.0
03:55 5.6 96.0 1025.3 0.0 SE 1.6 0.0
04:00 5.7 97.0 1025.6 1.6 SE 3.2 0.0
04:05 5.7 97.0 1025.6 1.6 SE 3.2 0.0
04:10 5.9 97.0 1025.7 3.2 SE 4.8 0.0
04:15 6.0 97.0 1025.7 1.6 SE 4.8 0.0
04:20 6.2 97.0 1025.5 1.6 SE 3.2 0.0
04:25 6.3 97.0 1025.5 0.0 SE 3.2 0.0
04:30 6.6 97.0 1025.6 1.6 SE 3.2 0.0
04:35 6.8 97.0 1025.7 0.0 SE 3.2 0.0
04:40 6.9 97.0 1025.9 0.0 SE 3.2 0.0
04:45 7.1 97.0 1025.9 0.0 SE 1.6 0.0
04:50 7.2 97.0 1025.9 0.0 SE 1.6 0.0
04:55 7.3 97.0 1026.1 0.0 SE 0.0 0.0
05:00 7.3 97.0 1026.1 1.6 SE 1.6 0.0
05:05 7.5 97.0 1026.2 0.0 SE 3.2 0.0
05:10 7.6 97.0 1026.3 1.6 SE 3.2 0.0
05:15 7.7 97.0 1026.2 0.0 SE 1.6 0.0
05:20 7.7 97.0 1026.1 0.0 SE 1.6 0.0
05:25 7.7 97.0 1025.9 0.0 SE 1.6 0.0
05:30 7.8 97.0 1026.1 1.6 SE 3.2 0.0
05:35 7.9 97.0 1026.1 0.0 SE 3.2 0.0
05:40 7.9 97.0 1026.2 0.0 SE 3.2 0.0
05:45 8.0 97.0 1026.2 0.0 SE 3.2 0.0
05:50 8.1 97.0 1026.1 0.0 SE 1.6 0.0
05:55 8.0 97.0 1026.1 0.0 SE 3.2 0.0
06:00 8.0 97.0 1026.0 0.0 SE 1.6 0.0
06:05 8.0 97.0 1026.0 0.0 SE 0.0 0.0
06:10 8.1 97.0 1026.0 0.0 SE 1.6 0.0
06:15 8.1 97.0 1026.1 0.0 SE 1.6 0.0
06:20 8.1 97.0 1026.1 0.0 SE 1.6 0.0
06:25 8.1 97.0 1026.0 1.6 SE 3.2 0.0
06:30 8.1 97.0 1026.2 0.0 SE 3.2 0.0
06:35 8.1 97.0 1026.1 0.0 SE 1.6 0.0
06:40 8.3 97.0 1026.3 1.6 SE 1.6 0.0
06:45 8.4 97.0 1026.4 0.0 SE 1.6 0.0
06:50 8.4 97.0 1026.3 0.0 SE 1.6 0.0
06:55 8.4 97.0 1026.5 0.0 SE 1.6 0.0
07:00 8.4 97.0 1026.7 0.0 SE 0.0 0.0
07:05 8.6 97.0 1026.9 0.0 SE 0.0 0.0
07:05 8.6 98.0 1027.0 0.0 SE 0.0 0.0
07:10 8.7 98.0 1026.9 0.0 SE 0.0 0.0
07:15 8.8 97.0 1026.8 0.0 SE 0.0 0.0
07:20 8.9 97.0 1026.8 0.0 SE 0.0 0.0
07:25 8.9 98.0 1026.8 1.6 SE 1.6 0.0
07:30 9.1 98.0 1026.9 0.0 SE 1.6 0.0
07:35 9.1 98.0 1026.8 1.6 SE 1.6 0.0
07:40 9.3 98.0 1026.8 0.0 SE 1.6 0.0
07:45 9.4 98.0 1026.8 0.0 SE 1.6 0.0
07:50 9.5 98.0 1027.0 0.0 SE 1.6 0.0
07:55 9.6 98.0 1026.7 0.0 SE 1.6 0.0
08:00 9.8 98.0 1026.8 0.0 SE 1.6 0.0
08:05 10.2 98.0 1026.8 1.6 SE 3.2 0.0
08:10 10.2 98.0 1026.9 3.2 SE 3.2 0.0
08:15 10.2 98.0 1026.9 1.6 N 4.8 0.0
08:20 10.2 98.0 1026.7 0.0 N 3.2 0.0
08:25 10.2 98.0 1026.8 1.6 N 3.2 0.0
08:30 10.3 97.0 1026.8 1.6 N 3.2 0.0
08:35 10.4 97.0 1027.0 0.0 N 3.2 0.0
08:40 10.4 97.0 1027.2 1.6 N 4.8 0.0
08:45 10.6 97.0 1027.2 1.6 N 4.8 0.0
08:50 10.7 97.0 1027.1 0.0 N 3.2 0.0
08:55 10.8 96.0 1027.3 3.2 N 4.8 0.0
09:00 10.9 96.0 1027.5 1.6 NNW 4.8 0.0
09:05 11.2 95.0 1027.5 1.6 NNW 4.8 0.0
09:10 11.5 95.0 1027.6 1.6 NNW 4.8 0.0
09:20 11.8 94.0 1027.6 1.6 NW 4.8 0.0
09:25 12.1 93.0 1027.9 0.0 NW 3.2 0.0
09:30 12.3 92.0 1027.8 1.6 NW 3.2 0.0
09:35 12.3 91.0 1027.7 1.6 NW 3.2 0.0
09:40 12.4 90.0 1027.7 0.0 NW 3.2 0.0
09:45 12.7 90.0 1027.8 0.0 NW 3.2 0.0
09:50 13.0 89.0 1027.6 0.0 NW 0.0 0.0
09:55 13.3 87.0 1027.5 0.0 NW 3.2 0.0
10:00 13.6 85.0 1027.5 3.2 NW 4.8 0.0
10:05 13.7 86.0 1027.5 4.8 NNW 6.4 0.0
10:10 13.8 85.0 1027.6 6.4 NNW 8.0 0.0
10:15 13.8 85.0 1027.5 3.2 N 8.0 0.0
10:20 14.1 85.0 1027.3 3.2 N 6.4 0.0
10:25 14.2 85.0 1027.5 6.4 NW 9.7 0.0
10:30 14.3 83.0 1027.4 3.2 NNW 9.7 0.0
10:35 14.5 83.0 1027.4 4.8 NW 8.0 0.0
10:40 14.7 84.0 1027.2 4.8 WSW 8.0 0.0
10:45 15.1 82.0 1027.3 3.2 NW 6.4 0.0
10:50 15.1 82.0 1027.2 3.2 NNW 8.0 0.0
10:55 15.1 81.0 1027.3 3.2 NNW 6.4 0.0
11:00 15.1 80.0 1027.2 6.4 NNW 8.0 0.0
11:05 14.9 81.0 1027.2 6.4 NNW 9.7 0.0
11:10 14.9 82.0 1027.0 4.8 NNW 8.0 0.0
11:15 14.8 82.0 1027.0 3.2 NNE 8.0 0.0
11:20 14.9 81.0 1026.9 6.4 NNW 6.4 0.0
11:25 15.2 81.0 1026.8 6.4 N 9.7 0.0
11:25 15.3 80.0 1026.9 3.2 NNE 9.7 0.0
11:30 15.3 80.0 1027.0 3.2 NW 8.0 0.0
11:35 15.6 80.0 1026.8 6.4 NW 8.0 0.0
11:40 15.5 79.0 1027.1 3.2 N 8.0 0.0
11:45 15.6 80.0 1027.0 6.4 N 8.0 0.0
11:50 15.7 78.0 1027.2 1.6 NW 9.7 0.0
11:55 15.8 80.0 1027.3 3.2 N 9.7 0.0
12:00 15.8 77.0 1027.1 11.3 WNW 11.3 0.0
12:05 15.9 78.0 1027.3 8.0 N 12.9 0.0
12:10 15.9 78.0 1027.2 6.4 NNE 14.5 0.0
12:15 15.9 76.0 1027.2 8.0 NNW 14.5 0.0
12:20 15.9 77.0 1027.2 6.4 N 14.5 0.0
12:25 16.1 77.0 1027.2 4.8 NW 14.5 0.0
12:30 16.3 78.0 1027.1 1.6 W 9.7 0.0
12:35 16.3 76.0 1027.0 4.8 NNW 12.9 0.0
12:40 16.3 76.0 1027.1 3.2 N 12.9 0.0
12:45 16.3 75.0 1027.1 1.6 NNW 14.5 0.0
12:50 16.4 74.0 1027.0 8.0 NNW 12.9 0.0
12:55 16.3 74.0 1026.8 8.0 NNE 8.0 0.0
13:00 16.3 74.0 1026.8 3.2 NW 12.9 0.0
13:05 16.6 75.0 1026.8 8.0 WSW 14.5 0.0
13:10 16.8 74.0 1026.8 4.8 NW 16.1 0.0
13:15 16.9 71.0 1026.9 14.5 NNW 17.7 0.0
13:20 16.7 72.0 1026.6 1.6 N 17.7 0.0
13:25 16.6 72.0 1026.6 3.2 NNW 9.7 0.0
13:30 16.8 70.0 1026.5 1.6 NW 9.7 0.0
13:35 17.1 71.0 1026.7 3.2 W 6.4 0.0
13:40 17.3 67.0 1026.1 4.8 NW 11.3 0.0
13:45 17.3 69.0 1026.2 4.8 WNW 12.9 0.0
13:50 17.5 70.0 1025.8 3.2 NW 12.9 0.0
13:55 17.4 68.0 1025.9 1.6 NNW 8.0 0.0
14:05 17.4 68.0 1025.9 4.8 WSW 9.7 0.0
14:10 17.6 67.0 1025.8 1.6 NNW 9.7 0.0
14:15 17.6 70.0 1025.8 3.2 WNW 9.7 0.0
14:20 17.6 70.0 1025.7 1.6 N 8.0 0.0
14:25 17.6 67.0 1025.8 1.6 SW 8.0 0.0
14:30 17.7 66.0 1025.8 8.0 SW 8.0 0.0
14:35 17.7 67.0 1025.9 3.2 WNW 9.7 0.0
14:40 17.7 68.0 1025.9 1.6 W 6.4 0.0
14:45 17.7 67.0 1025.9 3.2 WNW 9.7 0.0
14:50 17.7 68.0 1025.8 3.2 SW 9.7 0.0
14:55 17.8 67.0 1025.9 4.8 WNW 12.9 0.0
15:00 17.8 66.0 1025.8 3.2 NW 12.9 0.0
15:05 17.8 68.0 1025.9 1.6 W 8.0 0.0
15:10 17.7 67.0 1025.9 4.8 WSW 11.3 0.0
15:15 17.6 67.0 1025.9 1.6 N 11.3 0.0
15:20 17.3 67.0 1025.9 3.2 NW 8.0 0.0
15:25 17.2 69.0 1025.9 1.6 SW 8.0 0.0
15:30 17.1 69.0 1026.0 1.6 WSW 6.4 0.0
15:35 16.9 69.0 1025.9 3.2 W 6.4 0.0
15:40 16.8 69.0 1025.9 1.6 SW 6.4 0.0
15:45 16.7 71.0 1026.1 1.6 W 6.4 0.0
15:50 16.6 71.0 1026.1 1.6 W 3.2 0.0
15:55 16.5 72.0 1026.0 0.0 WSW 4.8 0.0
16:00 16.4 72.0 1025.9 1.6 WSW 4.8 0.0
16:05 16.1 75.0 1025.9 0.0 WSW 3.2 0.0
16:10 15.4 78.0 1026.0 1.6 WSW 3.2 0.0
16:15 14.7 80.0 1026.1 1.6 WSW 3.2 0.0
16:20 14.2 82.0 1025.9 4.8 S 4.8 0.0
16:25 13.6 83.0 1026.0 3.2 S 4.8 0.0
16:30 13.2 84.0 1025.9 3.2 S 4.8 0.0
16:35 12.8 85.0 1025.9 3.2 S 4.8 0.0
16:40 12.4 86.0 1026.0 4.8 S 4.8 0.0
16:45 12.2 87.0 1026.0 1.6 S 4.8 0.0
16:50 11.9 88.0 1026.1 3.2 S 4.8 0.0
16:55 11.7 88.0 1026.0 3.2 S 4.8 0.0
17:00 11.4 89.0 1026.1 3.2 S 4.8 0.0
17:05 11.2 90.0 1026.1 1.6 S 4.8 0.0
17:10 11.1 89.0 1026.2 4.8 SSE 8.0 0.0
17:15 10.8 90.0 1026.1 4.8 SE 8.0 0.0
17:20 10.6 90.0 1026.2 3.2 SE 6.4 0.0
17:25 10.5 91.0 1026.2 4.8 SE 6.4 0.0
17:30 10.4 91.0 1026.3 1.6 SE 4.8 0.0
17:35 10.2 91.0 1026.3 4.8 SE 4.8 0.0
17:40 10.1 91.0 1026.3 3.2 SE 4.8 0.0
17:45 9.9 92.0 1026.5 3.2 SE 4.8 0.0
17:50 9.8 92.0 1026.5 4.8 SE 4.8 0.0
17:55 9.8 92.0 1026.5 3.2 SE 6.4 0.0
18:00 9.7 93.0 1026.5 3.2 SE 6.4 0.0
18:05 9.7 93.0 1026.6 3.2 ENE 4.8 0.0
18:10 9.7 93.0 1026.6 1.6 ENE 3.2 0.0
18:15 9.6 92.0 1026.7 3.2 ENE 4.8 0.0
18:20 9.4 92.0 1026.9 1.6 ENE 4.8 0.0
18:25 9.3 93.0 1026.8 3.2 ESE 4.8 0.0
18:30 9.3 93.0 1026.9 1.6 ESE 4.8 0.0
18:35 9.2 93.0 1026.9 1.6 ESE 4.8 0.0
18:40 9.2 93.0 1026.9 1.6 ESE 3.2 0.0
18:45 9.2 94.0 1026.9 3.2 ESE 3.2 0.0
18:50 9.1 94.0 1027.0 3.2 ESE 4.8 0.0
18:55 9.1 94.0 1026.9 1.6 ESE 4.8 0.0
19:00 9.1 94.0 1026.9 3.2 ESE 4.8 0.0
19:05 9.1 94.0 1027.0 3.2 ESE 4.8 0.0
19:10 9.0 94.0 1026.9 3.2 ESE 4.8 0.0
19:15 8.9 94.0 1027.0 1.6 ESE 4.8 0.0
19:20 8.9 94.0 1027.0 3.2 ESE 4.8 0.0
19:25 8.9 94.0 1027.0 1.6 ESE 4.8 0.0
19:30 8.8 94.0 1026.9 3.2 ESE 4.8 0.0
19:35 8.7 94.0 1026.9 3.2 ESE 3.2 0.0
19:40 8.6 94.0 1026.8 1.6 ESE 4.8 0.0
19:45 8.5 94.0 1026.8 3.2 ESE 4.8 0.0
19:50 8.6 95.0 1026.9 1.6 ESE 4.8 0.0
19:55 8.7 95.0 1026.9 3.2 ESE 3.2 0.0
20:00 8.6 95.0 1026.9 1.6 ESE 3.2 0.0
20:05 8.6 95.0 1027.0 1.6 ESE 3.2 0.0
20:10 8.6 95.0 1027.0 3.2 ESE 3.2 0.0
20:15 8.4 94.0 1026.9 3.2 ESE 4.8 0.0
20:20 8.3 95.0 1027.0 3.2 ESE 4.8 0.0
20:25 8.2 95.0 1026.9 1.6 ESE 4.8 0.0
20:30 8.3 95.0 1027.0 3.2 ESE 4.8 0.0
20:35 8.4 95.0 1027.1 1.6 ESE 3.2 0.0
20:40 8.3 95.0 1027.2 1.6 ESE 3.2 0.0
20:45 8.2 95.0 1027.2 3.2 ESE 4.8 0.0
20:50 8.2 95.0 1027.3 1.6 ESE 4.8 0.0
20:55 8.2 95.0 1027.4 1.6 ESE 3.2 0.0
21:00 8.1 95.0 1027.4 3.2 ESE 3.2 0.0
21:05 7.9 95.0 1027.3 1.6 ESE 4.8 0.0
21:10 7.9 95.0 1027.3 4.8 ESE 4.8 0.0
21:15 8.1 96.0 1027.4 1.6 ESE 4.8 0.0
21:20 8.2 96.0 1027.4 1.6 ESE 3.2 0.0
21:25 8.1 95.0 1027.5 1.6 ESE 3.2 0.0
21:30 8.0 95.0 1027.5 1.6 ESE 3.2 0.0
21:35 7.9 95.0 1027.5 1.6 ESE 3.2 0.0
21:40 7.8 95.0 1027.6 4.8 ESE 4.8 0.0
21:45 7.8 95.0 1027.5 3.2 ESE 4.8 0.0
21:50 7.8 96.0 1027.4 1.6 ESE 4.8 0.0
21:55 7.7 96.0 1027.5 1.6 ESE 3.2 0.0
22:00 7.8 96.0 1027.4 3.2 ESE 3.2 0.0
22:05 7.8 96.0 1027.4 1.6 ESE 3.2 0.0
22:10 7.8 96.0 1027.4 3.2 ESE 3.2 0.0
22:15 7.7 95.0 1027.4 3.2 ESE 4.8 0.0
22:20 7.7 95.0 1027.4 1.6 ESE 4.8 0.0
22:25 7.5 95.0 1027.4 1.6 ESE 3.2 0.0
22:30 7.4 95.0 1027.4 3.2 ESE 3.2 0.0
22:35 7.4 96.0 1027.5 1.6 ESE 3.2 0.0
22:40 7.4 96.0 1027.4 3.2 ESE 3.2 0.0
Màxima 17.8 98.0 1027.9 14.5 NNW 17.7 0.0
Mínima 5.6 66.0 1024.7
Total 0.0